Martinsburg, WV

4:10 AM EDT on August 19, 2017 (GMT -0400)
Eastern W Va Regional-Shepherd

Weather History for KMRB - March, 2012

Change the Weather History Date:

Thursday, March 8, 2012

  Actual Average Record
Temperature  
Mean Temperature 61 °F 39 °F  
Max Temperature 71 °F 50 °F 86 °F (2000)
Min Temperature 50 °F 29 °F 5 °F (1960)
Degree Days  
Heating Degree Days 4 26  
Month to date heating degree days 170 215  
Since 1 July heating degree days 3411 4171  
Cooling Degree Days 0 0  
Month to date cooling degree days 0 0  
Year to date cooling degree days 0 0  
Growing Degree Days 10 (Base 50)    
Moisture  
Dew Point 44 °F    
Average Humidity 56    
Maximum Humidity 71    
Minimum Humidity 40    
Precipitation  
Precipitation 0.03 in 0.11 in 1.80 in (1930)
Month to date precipitation 0.40 0.79  
Year to date precipitation 5.28 5.57  
Sea Level Pressure  
Sea Level Pressure 30.10 in    
Wind  
Wind Speed 11 mph (SSW)    
Max Wind Speed 36 mph    
Max Gust Speed 47 mph    
Visibility 10 miles    
Events Rain    
T = Trace of Precipitation, MM = Missing Value Source: NWS Daily Summary

Daily Weather History Graph

Daily Weather History Graph

Search for Another Location

Airport or City:

Trip Planner

Search our weather history database for the weather conditions in past years. The results will help you decide how hot, cold, wet, or windy it might be!

Date:

Astronomy

Mar. 08, 2012 Rise Set
Actual Time 6:33 AM EST 6:12 PM EST
Civil Twilight 6:06 AM EST 6:38 PM EST
Nautical Twilight 5:35 AM EST 7:10 PM EST
Astronomical Twilight 5:04 AM EST 7:41 PM EST
Moon 6:56 PM EST (3/8) 6:16 AM EST (3/8)
Length of Visible Light 12h 32m
Length of Day
11h 38m
Full, 100% of the Moon is Illuminated
Mar 8
Full
Mar 14
Last Quarter
Mar 22
New
Mar 30
First Quarter
Apr 6
Full

Hourly Weather History & Observations

Time (EST) Temp. Dew Point Humidity Pressure Visibility Wind Dir Wind Speed Gust Speed Precip Events Conditions
12:53 AM 53.1 °F 39.0 °F 59% 30.30 in 10.0 mi South 5.8 mph - N/A   Clear
1:53 AM 51.1 °F 39.0 °F 63% 30.29 in 10.0 mi South 5.8 mph - N/A   Clear
2:53 AM 53.1 °F 39.0 °F 59% 30.28 in 10.0 mi South 8.1 mph - N/A   Clear
3:53 AM 53.1 °F 39.9 °F 61% 30.26 in 10.0 mi South 8.1 mph - N/A   Clear
4:53 AM 51.1 °F 41.0 °F 68% 30.25 in 10.0 mi South 6.9 mph - N/A   Clear
5:53 AM 52.0 °F 41.0 °F 66% 30.25 in 10.0 mi South 8.1 mph - N/A   Clear
6:53 AM 50.0 °F 41.0 °F 71% 30.23 in 10.0 mi SSE 6.9 mph - N/A   Clear
7:53 AM 54.0 °F 43.0 °F 66% 30.22 in 10.0 mi South 8.1 mph - N/A   Clear
8:53 AM 59.0 °F 45.0 °F 60% 30.19 in 10.0 mi South 6.9 mph - N/A   Clear
9:53 AM 62.1 °F 46.0 °F 56% 30.17 in 10.0 mi South 12.7 mph 18.4 mph N/A   Clear
10:53 AM 66.0 °F 46.0 °F 48% 30.12 in 10.0 mi SSW 13.8 mph 25.3 mph N/A   Clear
11:53 AM 68.0 °F 46.0 °F 45% 30.11 in 10.0 mi South 15.0 mph 21.9 mph N/A   Clear
12:53 PM 69.1 °F 46.9 °F 45% 30.09 in 10.0 mi SW 15.0 mph 24.2 mph N/A   Clear
1:53 PM 71.1 °F 46.0 °F 41% 30.06 in 10.0 mi SSW 10.4 mph 23.0 mph N/A   Mostly Cloudy
2:53 PM 70.0 °F 46.0 °F 42% 30.03 in 10.0 mi SSW 17.3 mph 27.6 mph N/A   Clear
3:53 PM 70.0 °F 46.0 °F 42% 30.01 in 10.0 mi SSW 12.7 mph 26.5 mph N/A   Clear
4:53 PM 69.1 °F 44.1 °F 40% 29.99 in 10.0 mi SSW 13.8 mph 21.9 mph N/A   Overcast
5:53 PM 69.1 °F 44.1 °F 40% 29.97 in 10.0 mi SSW 10.4 mph 16.1 mph N/A   Overcast
6:53 PM 68.0 °F 45.0 °F 43% 29.97 in 10.0 mi SW 13.8 mph 26.5 mph N/A   Overcast
7:53 PM 66.0 °F 45.0 °F 47% 29.96 in 10.0 mi SW 10.4 mph 20.7 mph N/A   Mostly Cloudy
8:53 PM 64.9 °F 45.0 °F 48% 29.94 in 10.0 mi SSW 9.2 mph - N/A   Overcast
9:53 PM 64.0 °F 45.0 °F 50% 29.93 in 10.0 mi SW 10.4 mph - N/A   Overcast
10:53 PM 64.0 °F 46.0 °F 52% 29.93 in 10.0 mi SSW 13.8 mph 21.9 mph N/A   Overcast
11:06 PM 59.0 °F 48.2 °F 67% 29.99 in 5.0 mi West 26.5 mph 47.2 mph 0.03 in Rain Light Rain
11:53 PM 52.0 °F 42.1 °F 69% 30.02 in 10.0 mi WNW 18.4 mph 29.9 mph 0.03 in   Overcast